THOR ABLESTAR DEB, 404

Orbit data source: Space-Track

THOR ABLESTAR DEB, 404 is space debris in LEO originally from a launch on Thu, 29 Jun 1961 UTC launched from the Air Force Eastern Test Range (AFETR). Debris objects in space refer to the collection of defunct objects orbiting the Earth. Examples of debris include non-operational satellites, rocket bodies, and fragments generated from explosions, collisions, or faulty payload assembly.

Loading next visibility...
Identifier
404, 1961-015ED
Orbit
LEO
Last TLE update
11 hours ago
Origin
Manufacturer
Unknown
Mission
Spacecraft
Bus & Motor
Unknown
Mass
Unknown
Launch date (UTC)
1961-06-29 (64 years ago)
Launch vehicle
Unknown
Launch site
Air Force Eastern Test Range (AFETR)
Object type
Payload
Rocket body
Debris
Shape & HBR
Unknown
Radar Cross Section
Medium (>0.1 m² and <1 m²)

Expand to show TLE details & history

TLE from 11 hours ago
0 THOR ABLESTAR DEB
1 00404U 61015ED  25189.84045666  .00000114  00000-0  32504-3 0  9998
2 00404  66.4699 104.0127 0556287 354.7360   4.7961 12.92178349998915
Epoch: 2025-07-08T20:10Z
TLE epoch observation values (Epoch: 2025-07-08T20:10:15.455Z)
Latitude
-0.0001°
Longitude
-125.58141°
Altitude
869.756 km
Speed
7.62 km/s
True Right ascension
06h 56m 03s
True Declination
0° 00' 00"
Sunlit
Object was in daylight at epoch
Visualization orbit readout
Latitude
-64.06058°
Longitude
170.52673°
Altitude
1,170.006 km
Speed
7.337 km/s
Apparent Right ascension
05h 22m 11s
Apparent Declination
-57° 25' 33"
Sunlit
Object is in daylight
Visualization observer readout
Local Sidereal Time
19:06:06
Azimuth
144.916° SSE
Elevation
-65.774°
Doppler factor
1
Orbital elements
Apogee altitude
1,718.036 km
Perigee altitude
864.744 km
Semi-major axis
7,669.527 km
Eccentricity
0.05563
Inclination
66.4699°
RAAN
104.0127°
Arg. of periapsis
354.736°
True anomaly
Unknown
Mean anomaly
4.7961°
Eccentric anomaly
Unknown
Mean motion
3.2314 °/min
Orbital period
111.41 mins
BSTAR
0.00032504
Loading maneuver chart data...
Loading SW <> Apogee altitude chart data...

THOR ABLESTAR DEB Visibility forecast

Observer location: undefined°, undefined°

Span
Click to sort rows by Start time (UTC) header in descending order
Start Az.
Max El. time (UTC)
Max El. Az.
Max El.
End time (UTC)
End Az.
8 mins2025-07-09 18:34:41.594Z147.216° SSE2025-07-09 18:38:41.594Z101.298° ESE20.407°2025-07-09 18:42:41.594Z59.928° ENE
11 mins2025-07-09 20:27:41.594Z229.834° WSW2025-07-09 20:32:41.594Z313.087° NW39.94°2025-07-09 20:38:41.594Z21.932° NNE
5 mins2025-07-09 22:27:41.594Z317.443° NNW2025-07-09 22:29:41.594Z336.334° NNW14.107°2025-07-09 22:32:41.594Z0.994° NNE
10 mins2025-07-10 02:23:41.594Z3.058° NNE2025-07-10 02:27:41.594Z34.447° NE17.67°2025-07-10 02:33:41.594Z74.357° E
17 mins2025-07-10 04:16:41.594Z338.768° N2025-07-10 04:24:41.594Z62.596° ENE40.569°2025-07-10 04:33:41.594Z132.962° SE
15 mins2025-07-10 06:12:41.594Z309.3° NW2025-07-10 06:18:41.594Z258.299° W32.268°2025-07-10 06:27:41.594Z190.23° SSW
|